Wind_Speed
17 16 16 15 14 14 13 13 12 12 11 10 10 11 11 10 10 10 10 9 9 9 9 9 8 8 8 8 8 8 8 7 7 7 8 8 8 8 9 9 8 8 9
18 18 17 16 15 15 14 14 13 12 11 10 11 11 11 11 10 10 10 10 10 9 9 9 9 9 9 9 9 9 9 8 8 8 8 8 9 9 9 9 9 9 9
19 19 18 18 17 16 16 15 14 13 12 11 12 12 11 11 11 11 11 11 11 11 10 10 10 9 9 9 9 9 9 9 9 9 9 9 9 9 9 10 10 10 10
19 19 19 19 18 18 17 16 15 15 14 13 13 13 13 12 12 11 11 12 11 11 11 11 10 10 9 9 10 10 10 10 10 10 10 10 10 10 10 10 10 11 11
20 20 19 19 19 20 19 18 17 16 15 14 14 14 14 13 13 12 12 12 12 12 12 12 12 11 10 10 10 10 11 11 11 11 11 11 11 11 11 11 11 11 12
21 21 20 20 20 21 20 19 18 17 16 16 15 15 15 14 14 13 13 13 13 13 13 13 12 12 11 11 11 11 11 12 12 12 12 11 11 12 12 13 13 13 13
23 22 21 22 22 22 21 20 19 18 18 18 17 16 16 16 15 14 14 14 14 14 14 14 13 13 13 12 12 12 12 13 13 12 12 12 12 13 13 14 14 15 15
24 24 23 23 23 23 22 21 20 19 19 19 19 18 17 17 16 15 15 15 15 15 14 15 14 14 14 14 14 14 14 14 14 14 14 14 14 14 15 15 15 16 16
26 25 25 24 24 24 24 23 23 21 20 19 20 19 19 18 17 17 16 16 16 16 16 15 15 15 15 15 15 15 15 16 15 15 16 16 16 16 16 16 16 16 17
26 26 26 26 25 25 25 25 24 23 22 21 21 20 20 19 19 18 18 18 17 16 16 16 16 16 16 16 17 16 16 16 16 16 17 17 17 17 17 18 18 18 18
26 26 25 25 26 26 26 26 26 25 24 23 23 22 21 21 20 20 19 19 18 17 17 17 17 17 17 17 18 18 17 17 18 18 18 18 18 18 19 19 20 20 20
25 25 25 26 27 27 27 27 26 26 25 24 24 23 22 22 21 21 21 20 19 19 19 18 19 19 19 18 18 18 18 18 19 19 19 19 19 19 20 21 22 22 22
24 24 24 25 26 27 28 28 27 27 26 26 25 24 23 23 22 22 22 22 21 20 20 20 20 20 20 20 20 19 19 19 20 20 19 19 20 20 21 22 23 23 23
24 24 24 24 25 25 26 28 28 27 27 26 26 25 24 24 24 23 23 23 23 22 22 21 21 21 21 21 21 21 20 20 21 21 21 21 21 22 22 23 23 22 23
25 24 24 24 25 25 26 27 28 27 27 26 26 25 25 25 25 24 24 24 24 23 23 22 22 22 22 22 22 22 22 22 22 22 22 22 22 22 23 23 23 23 23
26 25 25 25 25 25 26 26 26 28 28 28 27 26 26 26 26 26 26 26 26 25 25 24 24 23 23 22 23 23 23 23 23 23 23 23 23 23 23 23 23 23 23
27 27 27 26 26 26 26 26 26 26 27 28 28 28 28 27 28 28 28 28 27 27 26 25 25 25 25 24 24 24 24 23 23 23 23 23 23 24 24 25 24 25 25
28 28 28 28 27 27 27 27 27 27 27 27 28 29 29 29 29 29 30 29 28 28 28 27 27 26 26 26 25 25 25 25 25 25 24 24 24 25 25 26 26 26 27
29 29 30 30 29 29 28 28 28 27 27 28 28 29 29 29 30 30 31 30 29 29 29 29 29 28 28 27 27 27 27 27 26 26 26 26 26 26 26 27 27 27 28
30 30 30 30 30 30 30 29 29 29 28 28 29 29 29 30 30 30 30 31 31 30 29 30 30 30 30 29 28 28 28 28 28 27 27 27 27 28 28 28 29 29 29
30 31 30 30 31 31 31 32 31 31 31 30 30 30 31 31 30 30 31 31 32 31 31 31 31 30 30 30 29 29 29 29 29 29 29 29 29 30 30 30 30 30 30
31 30 30 30 30 30 32 33 33 32 32 31 31 31 32 32 31 31 31 31 32 32 31 32 31 30 30 31 31 30 30 30 30 30 30 30 30 30 31 30 30 30 30
30 30 30 31 31 31 32 32 32 32 32 32 32 31 32 31 31 31 32 32 32 32 32 32 32 32 32 32 32 31 31 31 30 30 30 30 30 30 30 30 30 31 31
29 29 30 30 31 31 31 31 31 32 32 33 32 32 32 32 32 32 33 33 33 32 32 32 32 32 33 32 32 32 32 32 32 32 32 31 31 30 31 31 32 32 32
29 30 30 30 31 32 32 32 32 32 33 33 33 33 32 32 33 33 33 33 33 33 33 33 33 33 33 33 32 33 33 33 33 34 33 33 33 32 32 31 31 32 32
29 29 29 30 31 32 32 33 33 33 33 33 33 33 32 33 33 33 33 33 34 34 34 34 34 34 35 34 34 34 34 34 34 35 35 34 34 33 33 33 33 32 32
Wind_Direction
277 274 274 274 274 274 275 275 278 280 278 274 270 267 265 265 263 262 262 262 262 263 263 267 271 273 272 269 272 273 270 267 272 275 279 278 280 287 293 299 303 306 312
274 270 269 269 270 272 273 275 277 276 275 271 269 266 265 265 263 263 262 262 261 263 263 265 268 270 270 268 269 271 267 267 273 278 278 282 284 286 291 296 298 301 309
271 267 264 263 264 266 270 274 274 272 270 268 267 265 264 264 264 264 261 259 260 262 263 266 272 271 269 267 267 267 266 266 271 278 280 284 289 290 294 295 295 299 303
269 266 262 260 260 261 263 267 268 267 266 265 264 263 261 260 262 264 263 260 263 263 263 265 270 272 265 266 266 265 264 266 271 275 280 286 287 289 296 299 301 301 302
268 266 262 259 257 258 260 261 261 261 263 263 261 261 261 259 259 260 263 262 262 263 262 263 268 267 264 267 267 267 267 267 270 273 278 282 283 288 294 297 299 300 301
267 266 263 259 257 257 258 258 258 257 258 260 260 260 259 258 257 257 260 262 263 264 264 264 263 262 264 267 266 268 269 269 270 272 274 278 282 286 290 294 297 299 298
266 265 263 260 257 255 254 255 255 255 255 255 255 257 256 255 255 255 259 262 266 265 264 263 262 260 261 264 265 267 269 270 271 272 273 276 280 285 289 294 297 299 300
265 263 262 260 257 253 251 251 252 254 254 254 254 255 254 254 256 255 258 261 264 263 262 262 261 260 262 263 264 266 267 268 269 271 271 275 281 285 288 292 294 296 299
265 263 261 258 256 253 250 249 250 253 253 254 254 253 252 252 253 253 255 259 262 262 260 260 260 260 263 264 265 268 269 269 270 270 274 277 282 285 288 291 292 294 296
265 262 260 258 255 252 250 249 250 251 251 252 253 252 252 251 250 251 254 256 259 260 260 260 260 261 265 265 265 268 269 268 269 270 272 276 280 284 287 290 294 295 296
265 262 258 257 255 252 250 250 250 251 251 252 252 251 251 251 250 251 254 254 256 257 260 260 260 262 265 265 265 267 267 267 269 270 272 275 278 283 287 289 293 295 296
265 263 258 255 255 252 251 251 251 251 252 251 250 250 250 251 250 251 253 253 255 257 260 260 259 261 264 265 266 267 267 268 269 271 273 276 279 282 285 288 290 293 295
264 261 259 258 256 254 252 251 250 250 251 249 248 249 251 251 250 249 251 253 255 257 259 261 260 261 263 264 266 266 267 270 272 272 273 275 279 283 286 288 289 290 292
262 260 259 258 257 256 254 251 250 250 249 248 248 248 251 251 250 249 251 252 254 256 259 260 260 262 263 264 266 267 268 271 273 273 274 275 279 283 286 287 289 290 291
261 260 259 258 258 257 255 253 251 249 248 250 249 248 250 250 250 249 251 252 254 257 259 260 262 263 264 265 266 267 269 272 273 274 276 277 279 283 286 288 289 290 292
259 259 259 258 258 257 255 253 251 248 248 250 249 248 247 248 248 248 250 252 254 256 258 258 260 262 263 265 266 266 268 271 272 274 277 278 280 282 285 287 288 289 291
259 259 258 257 257 256 255 252 250 250 251 250 248 248 248 248 249 250 251 252 254 255 256 257 259 261 263 264 266 267 267 269 271 275 277 278 280 281 283 285 286 288 290
259 259 258 256 255 254 253 252 251 253 253 252 251 250 250 249 248 250 251 251 254 256 255 256 257 259 262 264 266 267 267 269 271 273 275 278 280 282 284 284 285 287 289
260 259 257 255 253 252 251 251 252 253 254 254 253 251 251 252 250 250 251 252 254 255 255 255 256 257 260 263 265 264 265 268 271 272 274 276 279 281 284 285 285 286 288
260 259 258 255 252 252 251 250 252 252 254 254 254 254 255 255 253 251 252 252 253 254 254 255 256 257 258 261 262 263 265 266 269 271 273 275 277 280 282 284 286 286 287
260 259 257 254 254 253 252 250 251 252 254 256 256 257 258 257 254 253 253 253 253 254 255 255 257 258 258 260 261 263 265 267 269 272 273 275 277 279 282 284 287 288 288
260 258 257 255 255 253 251 251 252 253 255 257 259 259 258 258 257 255 254 255 254 254 256 255 255 256 258 259 261 263 265 268 270 273 274 276 278 280 282 283 284 287 289
258 257 257 256 255 253 253 253 253 253 254 257 259 259 258 257 257 256 255 255 255 255 254 254 254 255 257 258 259 263 265 267 269 272 274 275 277 279 281 283 283 285 286
258 258 258 256 254 253 254 254 254 254 254 257 258 258 258 256 256 255 254 254 254 253 253 254 255 256 257 258 260 262 264 266 267 270 272 274 275 277 279 282 283 284 285
260 259 258 257 255 255 255 256 256 256 257 258 257 257 256 255 256 255 254 253 253 253 254 255 256 257 259 260 260 262 263 265 267 269 271 274 276 277 278 280 282 284 285
261 259 258 258 258 257 257 257 257 257 258 257 256 255 255 255 256 256 255 254 253 253 255 256 257 258 259 259 260 262 263 265 267 269 270 272 274 277 278 279 282 282 284
Height
5820 5820 5820 5821 5821 5821 5821 5822 5822 5822 5823 5823 5823 5824 5825 5825 5826 5827 5827 5828 5828 5829 5830 5830 5830 5831 5831 5831 5832 5832 5832 5833 5833 5833 5833 5833 5833 5832 5832 5831 5831 5830 5829
5815 5815 5816 5816 5817 5817 5818 5818 5819 5819 5820 5820 5821 5822 5822 5823 5823 5824 5825 5825 5826 5827 5827 5828 5828 5828 5829 5829 5830 5830 5830 5830 5831 5831 5831 5831 5831 5830 5830 5829 5829 5828 5827
5809 5810 5811 5811 5812 5813 5814 5815 5815 5816 5817 5817 5818 5819 5820 5820 5821 5821 5822 5823 5823 5824 5824 5825 5825 5826 5826 5827 5827 5827 5828 5828 5829 5829 5829 5829 5828 5828 5828 5827 5826 5826 5825
5804 5804 5805 5806 5807 5808 5809 5811 5811 5812 5813 5814 5815 5816 5816 5817 5818 5818 5819 5820 5820 5821 5822 5822 5823 5823 5824 5824 5824 5825 5825 5826 5826 5826 5826 5826 5826 5825 5825 5824 5824 5823 5823
5798 5798 5799 5800 5802 5803 5804 5805 5807 5808 5809 5810 5811 5812 5813 5813 5814 5815 5816 5816 5817 5818 5819 5819 5820 5820 5821 5822 5822 5822 5823 5823 5823 5824 5823 5823 5823 5823 5822 5822 5821 5821 5820
5791 5792 5793 5794 5796 5797 5798 5800 5801 5803 5804 5806 5807 5808 5809 5810 5811 5812 5812 5813 5814 5815 5815 5816 5817 5817 5818 5818 5819 5819 5820 5820 5820 5821 5821 5820 5820 5820 5819 5819 5818 5818 5817
5785 5786 5787 5788 5789 5791 5792 5794 5796 5797 5799 5801 5802 5803 5805 5806 5806 5807 5808 5809 5810 5811 5811 5812 5813 5814 5815 5815 5816 5816 5816 5817 5817 5817 5817 5817 5817 5817 5816 5815 5815 5814 5813
5777 5778 5780 5781 5782 5784 5786 5788 5790 5791 5793 5795 5797 5798 5799 5801 5802 5803 5804 5805 5806 5807 5808 5809 5810 5810 5811 5811 5812 5812 5813 5813 5813 5814 5814 5813 5813 5813 5812 5812 5811 5810 5809
5769 5770 5772 5773 5775 5777 5779 5781 5784 5785 5787 5789 5791 5792 5794 5796 5797 5798 5800 5801 5802 5802 5803 5804 5805 5806 5807 5807 5808 5808 5809 5809 5809 5809 5809 5809 5809 5808 5808 5807 5806 5805 5804
5761 5762 5763 5765 5767 5769 5772 5774 5776 5779 5781 5783 5785 5786 5788 5790 5792 5793 5795 5796 5797 5798 5799 5800 5801 5802 5802 5803 5803 5804 5804 5804 5804 5804 5805 5804 5804 5804 5803 5802 5801 5800 5799
5752 5754 5755 5757 5759 5761 5764 5766 5769 5771 5774 5776 5778 5780 5782 5784 5786 5788 5789 5790 5792 5793 5794 5795 5796 5796 5797 5798 5798 5799 5799 5799 5799 5800 5800 5799 5799 5799 5798 5797 5796 5795 5794
5744 5745 5747 5749 5750 5753 5755 5758 5760 5763 5766 5769 5771 5773 5775 5778 5780 5782 5783 5785 5786 5787 5788 5789 5790 5791 5792 5792 5793 5793 5793 5794 5794 5794 5794 5794 5794 5793 5792 5791 5790 5789 5788
5737 5737 5739 5741 5742 5744 5747 5749 5752 5755 5758 5760 5763 5766 5768 5771 5773 5775 5777 5779 5780 5781 5782 5783 5784 5785 5786 5786 5787 5787 5788 5788 5788 5789 5789 5788 5788 5787 5786 5785 5784 5783 5782
5729 5730 5732 5733 5735 5736 5739 5741 5744 5746 5749 5752 5755 5758 5761 5763 5765 5768 5770 5772 5773 5774 5776 5777 5778 5779 5780 5780 5781 5782 5782 5782 5782 5782 5782 5782 5782 5781 5780 5779 5778 5777 5776
5722 5723 5724 5726 5728 5729 5731 5733 5736 5738 5741 5744 5747 5750 5753 5755 5758 5760 5762 5764 5766 5767 5769 5770 5771 5772 5773 5774 5775 5775 5776 5776 5776 5776 5776 5775 5775 5774 5773 5772 5771 5770 5769
5714 5715 5717 5719 5720 5722 5724 5726 5728 5731 5733 5736 5739 5741 5744 5747 5749 5752 5754 5756 5758 5760 5761 5763 5764 5765 5766 5767 5768 5768 5768 5769 5769 5769 5769 5768 5768 5767 5766 5765 5764 5763 5762
5706 5707 5709 5710 5712 5714 5716 5718 5721 5723 5725 5728 5730 5733 5736 5738 5741 5743 5746 5748 5750 5751 5753 5755 5756 5757 5758 5759 5760 5761 5761 5761 5761 5761 5761 5761 5760 5760 5759 5758 5756 5755 5754
5697 5698 5700 5702 5704 5706 5708 5711 5713 5715 5717 5719 5722 5724 5727 5729 5732 5734 5737 5739 5741 5743 5745 5746 5748 5749 5750 5751 5752 5752 5753 5753 5753 5753 5753 5753 5752 5752 5751 5749 5748 5747 5746
5688 5689 5691 5693 5695 5697 5700 5702 5704 5706 5709 5711 5713 5716 5718 5720 5722 5725 5727 5730 5732 5734 5736 5737 5739 5740 5741 5742 5743 5744 5744 5745 5745 5745 5745 5745 5744 5744 5743 5741 5740 5738 5737
5678 5679 5681 5684 5686 5688 5690 5693 5696 5698 5700 5702 5704 5706 5708 5711 5713 5715 5717 5720 5723 5725 5726 5728 5729 5730 5732 5733 5734 5735 5735 5736 5736 5736 5736 5736 5735 5735 5734 5732 5731 5729 5728
5668 5670 5672 5674 5676 5679 5681 5684 5687 5689 5692 5694 5696 5697 5699 5701 5703 5705 5708 5710 5713 5715 5716 5718 5719 5721 5722 5723 5724 5725 5726 5726 5727 5727 5727 5726 5726 5725 5724 5723 5721 5720 5718
5658 5660 5662 5664 5667 5669 5672 5675 5677 5680 5682 5684 5686 5687 5689 5690 5693 5695 5698 5700 5702 5704 5706 5708 5709 5710 5712 5713 5714 5715 5716 5717 5717 5717 5717 5716 5716 5715 5714 5713 5712 5710 5709
5648 5650 5652 5654 5656 5659 5662 5665 5667 5670 5672 5674 5676 5677 5679 5681 5683 5685 5687 5689 5691 5693 5695 5697 5699 5700 5701 5702 5704 5705 5706 5707 5707 5707 5707 5706 5706 5705 5704 5703 5702 5700 5699
5639 5641 5643 5645 5647 5650 5652 5655 5657 5659 5661 5663 5665 5667 5669 5670 5672 5675 5677 5679 5680 5682 5684 5686 5688 5690 5691 5692 5694 5695 5696 5696 5697 5697 5696 5696 5696 5695 5694 5693 5691 5690 5688
5630 5631 5633 5635 5637 5640 5642 5644 5647 5649 5651 5653 5654 5656 5658 5660 5661 5663 5665 5667 5670 5672 5674 5675 5677 5679 5680 5682 5683 5684 5685 5685 5686 5686 5686 5685 5685 5684 5683 5682 5681 5679 5678
5620 5622 5623 5625 5627 5630 5632 5634 5636 5638 5640 5642 5644 5645 5647 5649 5651 5652 5654 5656 5658 5661 5663 5665 5666 5668 5669 5671 5672 5673 5673 5674 5674 5674 5674 5674 5674 5673 5672 5671 5670 5668 5667